{"data":{"norad_id":59942,"epoch":"2026-05-25T01:00:29.162016Z","epoch_age_seconds":71569,"freshness":"FRESH","line1":"1 59942U 24106W   26145.04200419 -.00001149  00000+0 -32201-4 0  9998","line2":"2 59942  43.0045 261.0103 0002829 270.0967  89.9560 15.27581746112201","mean_motion":15.27581746,"eccentricity":0.0002829,"inclination_deg":43.0045,"raan_deg":261.0103,"arg_perigee_deg":270.0967,"mean_anomaly_deg":89.956,"bstar":-3.2201e-5,"rev_number":11220,"period_min":94.266640968358,"perigee_km":481.10283982499,"apogee_km":484.98489596004,"semimajor_km":6861.1808678925,"source":"CELESTRAK","updated_at":"2026-05-25T13:38:19.125894Z"}}